Content
SEND FEEDBACK

Daily
Averages
Monthly
Summary
Brazil

RIO DE JANEIRO, RIO DE JANEIRO


Home > South America > Brazil > Rio De Janeiro
Elevation: 20 feet     Latitude: 22 49S     Longitude: 043 15W

WEATHER
 
SELECT A DAY
Number of Records: 192,862;   Date Range: 6/30/96 - 7/30/14
 
SHARE

PRINT THIS DATA

[ ← Previous Day ]
WEATHER ALMANAC - FEBRUARY 23, 2013
[ Next Day → ]
[ °C ]   °F
Weather ElementAverageHighLow
Temperature83.4 °F89.6 °F (11:00 am)78.8 °F (4:00 am)
Dewpoint72.4 °F75.2 °F (4:00 am)68 °F (2:00 pm)
Humidity68.8 %89 % (4:00 am)46 % (3:00 pm)
Barometer29.93 in29.98 in (9:00 am)29.89 in (3:00 am)
Wind Speed10.2 mph17.3 mph (2:00 pm)
Weather ElementAverage
Visibility6.9 mi
Wind DirectionSSE (167.1 °)

Weather ElementTotal
Precipitation---
Cooling Degree Days19.2 (Base 65)
Growing Degree Days34.2 (Base 50)
Averaged from 31 records on February 23, 2013
WEATHER CONDITIONS BREAKOUT
WIND DIRECTION BREAKOUT
WEATHER BY HOUR - FEBRUARY 23, 2013
[ °C ]   °F
Local TimeTemperatureDewpointHumidityBarometerVisibilityWind DirectionWind SpeedGust SpeedPrecipitationEventsConditions
12:00 AM82.4 °F73.4 °F74 %29.92 in6.2 miWest (270°)11.5 mphPartly Cloudy
1:00 AM80.6 °F73.4 °F79 %29.92 in6.2 miWest (260°)11.5 mphPartly Cloudy
2:00 AM82.4 °F73.4 °F74 %29.92 in6.2 miWest (270°)11.5 mphScattered Clouds
3:00 AM80.0 °F73.0 °F75 %29.89 in7.0 miWest (260°)9.2 mphHaze
3:00 AM80.6 °F73.4 °F79 %29.89 in6.2 miWest (260°)9.2 mphPartly Cloudy
4:00 AM78.8 °F75.2 °F89 %29.89 in6.2 miWest (270°)5.8 mphPartly Cloudy
5:00 AM80.6 °F73.4 °F79 %29.89 in6.2 miSW (220°)6.9 mphScattered Clouds
6:00 AM80.6 °F73.4 °F79 %29.92 in6.2 miWSW (240°)5.8 mphScattered Clouds
6:00 AM81.0 °F72.0 °F69 %29.92 in9.0 miWSW (240°)5.8 mphHaze
7:00 AM82.4 °F71.6 °F70 %29.95 in6.2 miSW (220°)6.9 mphScattered Clouds
8:00 AM84.2 °F71.6 °F66 %29.95 in5.0 miWSW (250°)5.8 mphScattered Clouds
9:00 AM84.0 °F74.0 °F64 %29.98 in6.0 miNorth (10°)6.9 mphHaze
9:00 AM84.2 °F73.4 °F70 %29.98 in6.2 miNorth (10°)6.9 mphPartly Cloudy
10:00 AM87.8 °F71.6 °F58 %29.98 in6.2 miNorth (10°)9.2 mphScattered Clouds
11:00 AM89.6 °F71.6 °F55 %29.95 in6.2 miENE (70°)12.7 mphScattered Clouds
12:00 PM89.6 °F73.4 °F59 %29.95 in6.2 miSE (130°)10.4 mphPartly Cloudy
12:00 PM89.0 °F74.0 °F53 %29.95 in12.0 miSE (130°)10.4 mphPartly Cloudy
1:00 PM89.6 °F71.6 °F55 %29.92 in6.2 miSE (130°)15.0 mphPartly Cloudy
2:00 PM87.8 °F68.0 °F52 %29.92 in5.0 miSouth (190°)17.3 mphThunderstormPartly Cloudy
3:00 PM87.0 °F69.0 °F46 %29.91 in12.0 miSSW (200°)16.1 mphPartly Cloudy
3:00 PM87.8 °F69.8 °F55 %29.89 in6.2 miSSW (200°)16.1 mphPartly Cloudy
4:00 PM89.6 °F68.0 °F49 %29.89 in6.2 miSSW (210°)12.7 mphPartly Cloudy
5:00 PM84.2 °F73.4 °F70 %29.89 in6.2 miSE (130°)17.3 mphPartly Cloudy
6:00 PM80.6 °F73.4 °F79 %29.92 in6.2 miSE (130°)15.0 mphPartly Cloudy
6:00 PM81.0 °F73.0 °F70 %29.91 in12.0 miSE (130°)15.0 mphScattered Clouds
7:00 PM80.6 °F73.4 °F79 %29.92 in6.2 miSE (130°)12.7 mphPartly Cloudy
8:00 PM80.6 °F73.4 °F79 %29.95 in6.2 miESE (120°)8.1 mphMostly Cloudy
9:00 PM80.0 °F72.0 °F71 %29.97 in9.0 miESE (120°)6.9 mphHaze
9:00 PM80.6 °F71.6 °F74 %29.98 in6.2 miESE (120°)6.9 mphScattered Clouds
10:00 PM80.6 °F73.4 °F79 %29.98 in6.2 miSE (130°)5.8 mphScattered Clouds
11:00 PM78.8 °F73.4 °F83 %29.98 in6.2 miESE (120°)4.6 mphPartly Cloudy
Hourly data recorded from SBGL, located miles away from Rio De Janeiro, Rio De Janeiro







STORIES FROM OUR PARTNERS